Flag for India Weather past 2 weeks in New Okhla Industrial Development Authority, Uttar Pradesh, India

Now
73 °F

Rain. Overcast.


Feels Like: 76 °F
Forecast: 69 / 93 °F
Wind: No wind

Location: New Delhi Palam Airport

Current Time: Oct 22, 2014 at 2:22:33 AM

Latest Report: Oct 22, 2014 at 1:30 AM


Visibility: 1 mi

Pressure: 30.01 "Hg

Humidity: 61%

Dew point: 59 °F

Location of New Okhla Industrial Development AuthorityLocation

Historic Weather in New Okhla Industrial Development Authority — Graph

°F

New Okhla Industrial Development Authority temperature yesterday

Maximum temperature yesterday: 93 °F (at 3:30 PM)
Minimum temperature yesterday: 66 °F (at 4:30 AM)
Average temperature yesterday: 78 °F

Past Weeks' High & Low Weather Summary

 TemperatureHumidityPressure
High97 °F (Oct 7, 12:00 PM)94% (Oct 17, 4:30 AM)30.04 "Hg (Oct 17, 4:30 AM)
Low63 °F (Oct 17, 4:30 AM)20% (Oct 12, 4:30 PM)29.74 "Hg (Oct 7, 4:30 PM)
Average79 °F56%29.90 "Hg
* Reported Oct 7 12:30 AM — Oct 22 1:00 AM, New Okhla Industrial Development Authority, Weather by CustomWeather, © 2014

Note: Actual official high and low records may vary slightly from our data, if they occured in-between our weather recording intervals... More about our weather records

Advertising

New Okhla Industrial Development Authority weather history for previous 24 hours

 ConditionsComfort  
Time TempWeatherWind HumidityBarometerVisibility
1:00 AM
Oct 22
75 °FHaze.2 mph57%30.01 "Hg1 mi
12:30 AM75 °FHaze.2 mph57%30.01 "Hg1 mi
12:00 AM75 °FHaze.5 mph57%30.01 "Hg1 mi
11:30 PM
Oct 21
75 °FHaze.3 mph57%30.01 "Hg1 mi
11:00 PM75 °FHaze.No wind57%30.01 "Hg1 mi
10:30 PM75 °FHaze.No wind54%30.01 "Hg1 mi
10:00 PM77 °FHaze.No wind54%30.01 "Hg1 mi
9:30 PM79 °FHaze.No wind54%30.01 "Hg1 mi
9:00 PM79 °FHaze.2 mph48%30.01 "Hg1 mi
8:30 PM79 °FHaze.2 mph48%29.98 "Hg1 mi
8:00 PM81 °FHaze.3 mph39%29.98 "Hg1 mi
7:00 PM84 °FHaze.3 mph35%29.95 "Hg2 mi
6:30 PM84 °FHaze.3 mph35%29.95 "Hg2 mi
6:00 PM86 °FHaze.5 mph33%29.92 "Hg2 mi
5:30 PM90 °FHaze.6 mph29%29.92 "Hg2 mi
5:00 PM91 °FHaze.7 mph28%29.92 "Hg2 mi
4:30 PM91 °FHaze.6 mph28%29.92 "Hg2 mi
4:00 PM93 °FHaze.6 mph28%29.92 "Hg2 mi
3:30 PM93 °FHaze.8 mph28%29.92 "Hg2 mi
2:30 PM91 °FHaze.7 mph30%29.95 "Hg2 mi
2:00 PM90 °FHaze.7 mph33%29.95 "Hg2 mi
1:30 PM90 °FHaze.7 mph33%29.98 "Hg2 mi
12:30 PM88 °FClear.5 mph38%30.01 "Hg1 mi
12:00 PM88 °FClear.5 mph40%30.04 "Hg1 mi
11:30 AM86 °FClear.3 mph43%30.04 "Hg1 mi
11:00 AM84 °FClear.5 mph45%30.04 "Hg1 mi
10:30 AM81 °FClear.5 mph51%30.04 "Hg1 mi
10:00 AM81 °FClear.5 mph48%30.04 "Hg1 mi
9:00 AM75 °FClear.5 mph57%30.04 "Hg1 mi
8:00 AM68 °FClear.3 mph73%30.01 "Hg1 mi
7:00 AM66 °FFog.5 mph83%30.01 "Hg1 mi
6:30 AM66 °FFog.3 mph83%29.98 "Hg1 mi
6:00 AM66 °FFog.3 mph83%29.98 "Hg1 mi
5:30 AM66 °FFog.No wind83%29.98 "Hg1 mi
5:00 AM66 °FFog.5 mph83%29.98 "Hg1 mi
4:30 AM66 °FFog.5 mph88%29.95 "Hg1 mi
3:30 AM68 °FFog.No wind83%29.95 "Hg1 mi
3:00 AM68 °FFog.No wind83%29.95 "Hg1 mi
2:30 AM68 °FFog.No wind78%29.95 "Hg1 mi
2:00 AM68 °FFog.No wind78%29.95 "Hg1 mi
Weather by CustomWeather, © 2014

See weather overviewHow to use our weather pages